Regional Weather Roundup
Issued by NWS

Home | Current Version | Previous Version | Text Only | Print | Product List | Glossary On
Versions: 1 2 3 4 5 6 7 8 9 10 11 12 13 14 15 16 17 18 19 20 21 22 23 24 25 26 27 28 29 30 31 32 33 34 35 36 37 38 39 40 41 42 43 44 45 46 47 48 49 50
000
ASUS43 KFSD 171902
RWRSD

WEATHER ROUNDUP FOR SOUTH DAKOTA
NATIONAL WEATHER SERVICE SIOUX FALLS SD
200 PM CDT WED SEP 17 2014

NOTE: "FAIR" INDICATES FEW OR NO CLOUDS BELOW 12,000 FEET WITH NO
SIGNIFICANT WEATHER AND/OR OBSTRUCTIONS TO VISIBILITY.


SDZ001>005-009-010-012>017-172000-
NORTHWEST AND NORTH CENTRAL SOUTH DAKOTA

CITY           SKY/WX    TMP DP  RH WIND       PRES   REMARKS
FAITH            N/A     74  52  46 E10       29.95S
MOBRIDGE       MOSUNNY   75  48  38 E8        29.93F
$$

SDZ012>016-024>037-041>051-057-063-072>074-172000-
SOUTHWEST AND SOUTH CENTRAL SOUTH DAKOTA

CITY           SKY/WX    TMP DP  RH WIND       PRES   REMARKS
RAPID CTY ARPT PTSUNNY   75  51  43 E9        29.96F
PIERRE         SUNNY     78  51  38 E8        29.92S
CUSTER         PTSUNNY   76  38  25 VRB6      30.07S
ELLSWORTH AFB  PTSUNNY   76  50  41 S9        29.96F
PHILIP         SUNNY     78  55  44 E9        29.93F
PINE RIDGE     SUNNY     80  55  42 VRB6      29.96F
WINNER         FAIR      78  56  46 E8        29.93F
$$

SDZ004>011-016>023-039-040-172000-
NORTHEAST SOUTH DAKOTA

CITY           SKY/WX    TMP DP  RH WIND       PRES   REMARKS
ABERDEEN       SUNNY     70  50  49 NE13G18   29.96S
WATERTOWN      MOSUNNY   72  51  47 NE7       29.95S
SISSETON         N/A     73  52  47 VRB6      29.94F
$$

SDZ017-020-022-023-036>040-048>070-172000-
SOUTHEAST SOUTH DAKOTA

CITY           SKY/WX    TMP DP  RH WIND       PRES   REMARKS
SIOUX FALLS    PTSUNNY   74  58  57 SE5       29.92F
HURON          SUNNY     77  54  44 N8        29.92F
CHAMBERLAIN    SUNNY     76  55  48 E8        29.93F
MITCHELL       SUNNY     76  56  49 CALM      29.93F
YANKTON        SUNNY     75  59  57 E3        29.91F
$$

ABBREVIATIONS USED IN REMARKS
   TC - TEMPERATURE IN CELSIUS
  WCI - WIND CHILL INDEX
   HX - HEAT INDEX
  VSB - VISIBILITY



USA.gov is the U.S. government's official web portal to all federal, state and local government web resources and services.